Hourly Data Report for October 08, 2016

All times are specified in Local Standard Time (LST). Add 1 hour to adjust for Daylight Saving Time where and when it is observed.

PANGNIRTUNG
NUNAVUT

66°08'36.300" N
65°42'40.500" W
22.60 m
2403049
71826
WXP

Download Data

Hourly Data (October 2016)
Hourly Data Report for October 8, 2016
Temp Definition
°C
Dew Point Temp Definition
°C
Rel Hum Definition
%
Wind Dir Definition
10's deg

Wind Spd Definition
km/h
Visibility Definition
km
Stn Press Definition
kPa
Hmdx Definition


Wind Chill Definition


Weather Definition


TIME
00:00 -3.3 -6.0 81 26 3   101.33   -5 LegendNANA
01:00 -3.6 -6.3 82 8 5   101.27   -6 LegendNANA
02:00 -3.1 -6.3 78 10 5   101.23   -5 LegendNANA
03:00 -3.6 -6.6 80 24 5   101.21   -6 LegendNANA
04:00 -3.1 -5.7 82 17 3   101.17   -4 LegendNANA
05:00 -3.6 -5.7 86 23 4   101.14   -5 LegendNANA
06:00 -2.9 -5.2 85 19 6   101.10   -5 LegendNANA
07:00 -2.5 -4.8 84 14 8   101.04   -6 LegendNANA
08:00 -2.6 -5.1 83 16 2   100.99   -3 LegendNANA
09:00 -2.0 -5.2 79 12 6   100.89   -4 LegendNANA
10:00 -2.2 -5.5 78 16 1   100.82   -3 LegendNANA
11:00 -2.6 -5.4 81 18 3   100.75   -4 LegendNANA
12:00 -2.5 -5.5 80 17 3   100.70   -4 LegendNANA
13:00 -1.8 -5.4 76 23 4   100.64   -3 LegendNANA
14:00 -1.8 -4.8 80   0   100.55     LegendNANA
15:00 -2.6 -4.9 85 22 4   100.51   -4 LegendNANA
16:00 -2.1 -5.2 79 22 7   100.48   -5 LegendNANA
17:00 -1.9 -3.9 86 23 11   100.47   -6 LegendNANA
18:00 -2.6 -5.0 83 21 6   100.45   -5 LegendNANA
19:00 -2.0 -4.6 83 23 9   100.43   -5 LegendNANA
20:00 -1.5 -4.6 79 24 9   100.40   -5 LegendNANA
21:00 -1.6 -4.5 81 23 7   100.37   -4 LegendNANA
22:00 -1.8 -4.1 85 23 4   100.34   -3 LegendNANA
23:00 -1.9 -4.1 85 24 7   100.32   -5 LegendNANA

Notes on Data Quality.

Legend

  • E = Estimated
  • M = Missing
  • NA = Not Available
  • ‡ = Partner data that is not subject to review by the National Climate Archives
Date modified: